Weather History for Jordan, MT

Change the Weather History Date:

Monday, March 18, 2013

  Actual Average Record
Temperature  
Mean Temperature 12 °F 34 °F  
Max Temperature 34 °F 46 °F 71 °F (1972)
Min Temperature -10 °F 22 °F -22 °F (1965)
Degree Days  
Heating Degree Days 53 31  
Month to date heating degree days 629 619  
Since 1 July heating degree days 6087 6737  
Cooling Degree Days 0 0  
Month to date cooling degree days 0 0  
Year to date cooling degree days 0 0  
Moisture  
Dew Point 9 °F    
Average Humidity 78    
Maximum Humidity 92    
Minimum Humidity 63    
Precipitation  
Precipitation 0.00 in 0.02 in 0.47 in (1964)
Month to date precipitation 0.63 0.28  
Year to date precipitation 1.03 0.76  
Snow  
Snow 0.00 in - - ()
Month to date snowfall 0.0  
Since 1 July snowfall 0.0  
Snow Depth 0.00 in    
Sea Level Pressure  
Sea Level Pressure 30.06 in    
Wind  
Wind Speed 6 mph (WSW)    
Max Wind Speed 21 mph    
Max Gust Speed 24 mph    
T = Trace of Precipitation, MM = Missing Value Source: NWS Daily Summary

Daily Weather History Graph

Daily Weather History Graph

Search for Another Location

Airport:

Trip Planner

Search our weather history database for the weather conditions in past years. The results will help you decide how hot, cold, wet, or windy it might be!

Date:

Astronomy

Mar. 18, 2013 Rise Set
Actual Time 7:14 AM MDT 7:18 PM MDT
Civil Twilight 6:43 AM MDT 7:48 PM MDT
Nautical Twilight 6:07 AM MDT 8:24 PM MDT
Astronomical Twilight 5:31 AM MDT 9:01 PM MDT
Moon 10:53 AM MDT (3/18) 1:42 AM MDT (3/18)
Length of Visible Light 13h 05m
Length of Day
12h 04m
Waxing Crescent, 41% of the Moon is Illuminated
Mar 18
Waxing Crescent
Mar 19
First Quarter
Mar 27
Full
Apr 2
Last Quarter
Apr 10
New

Hourly Weather History & Observations

Time (MDT) Temp. Windchill Dew Point Humidity Pressure Visibility Wind Dir Wind Speed Gust Speed Precip Events Conditions
12:48 AM 7.0 °F -11.0 °F -0.0 °F 73% 30.09 in - NW 16.1 mph - N/A   Unknown
1:48 AM 6.1 °F -10.2 °F -0.9 °F 73% 30.12 in - NW 12.7 mph - N/A   Unknown
2:48 AM 3.0 °F -13.3 °F -2.9 °F 76% 30.13 in - NW 11.5 mph - N/A   Unknown
3:48 AM -0.9 °F -12.7 °F -6.0 °F 79% 30.14 in - WSW 5.8 mph - N/A   Unknown
4:48 AM -2.0 °F -12.2 °F -6.0 °F 83% 30.14 in - WNW 4.6 mph - N/A   Unknown
5:48 AM -5.1 °F - -9.0 °F 83% 30.14 in - Calm Calm - N/A   Unknown
6:48 AM -7.1 °F -15.9 °F -11.0 °F 83% 30.14 in - WNW 3.5 mph - N/A   Unknown
7:48 AM -9.0 °F - -11.9 °F 87% 30.15 in - Calm Calm - N/A   Unknown
8:48 AM 1.9 °F - -4.0 °F 76% 30.13 in - Calm Calm - N/A   Unknown
9:48 AM 9.0 °F -0.9 °F 3.0 °F 77% 30.11 in - SSW 5.8 mph - N/A   Unknown
10:48 AM 12.0 °F 5.9 °F 5.0 °F 73% 30.08 in - SSE 3.5 mph - N/A   Unknown
11:48 AM 18.0 °F 8.7 °F 10.0 °F 71% 30.04 in - SE 6.9 mph - N/A   Unknown
12:48 PM 21.9 °F 11.7 °F 12.9 °F 68% 30.01 in - SSE 9.2 mph - N/A   Unknown
1:48 PM 26.1 °F 16.2 °F 17.1 °F 69% 29.99 in - South 10.4 mph - N/A   Unknown
2:48 PM 30.0 °F 25.2 °F 21.0 °F 69% 29.96 in - SSW 4.6 mph - N/A   Unknown
3:48 PM 32.0 °F 24.2 °F 21.9 °F 66% 29.94 in - SSW 9.2 mph - N/A   Unknown
4:48 PM 34.0 °F 27.2 °F 23.0 °F 64% 29.94 in - West 8.1 mph - N/A   Unknown
5:48 PM 33.1 °F 26.1 °F 23.0 °F 66% 29.95 in - WSW 8.1 mph - N/A   Unknown
6:48 PM 30.9 °F 24.3 °F 24.1 °F 76% 29.98 in - West 6.9 mph - N/A   Unknown
7:48 PM 28.0 °F 21.7 °F 23.0 °F 81% 30.02 in - West 5.8 mph - N/A   Unknown
8:48 PM 21.0 °F 16.2 °F 19.0 °F 92% 30.01 in - West 3.5 mph - N/A   Unknown
9:48 PM 21.9 °F 13.4 °F 19.9 °F 92% 30.02 in - WNW 6.9 mph - N/A   Unknown
10:48 PM 19.0 °F 10.0 °F 17.1 °F 92% 30.04 in - WNW 6.9 mph - N/A   Unknown
11:48 PM 19.0 °F 8.2 °F 16.0 °F 88% 30.05 in - WNW 9.2 mph - N/A   Unknown